Location: Bougoudala
(13.2282°N, 4.9477°W)
Time: 06:42:00
(UTC+00:00)

Cosmos 1110 Rocket - Pass Details

Date: 29 January 2020
Orbit: 752 x 782 km, 74.0° (Epoch: 27 February)

Event Time Altitude Azimuth Distance (km) Brightness Sun altitude
Rises 19:57:24 0° 184° (S) 3,190 7.4 -23.8°
Reaches altitude 10° 19:59:47 10° 180° (S) 2,267 6.6 -24.4°
Enters shadow 20:03:37 46° 151° (SSE) 1,006 4.4 -25.3°
